QPF
0.00 0.00 0.00 0.00 0.00 0.00 0.00 0.00 0.00 0.00 0.00 0.00 0.00 0.00 0.00 0.00 0.00 0.00 0.00 0.00 0.00 0.00 0.00 0.00 0.00 0.00 0.00 0.00 0.00 0.00 0.00 0.00
0.00 0.00 0.00 0.00 0.00 0.00 0.00 0.00 0.00 0.00 0.00 0.00 0.00 0.00 0.00 0.00 0.00 0.00 0.00 0.00 0.00 0.00 0.00 0.00 0.00 0.00 0.00 0.00 0.00 0.00 0.00 0.00
0.00 0.00 0.00 0.00 0.00 0.00 0.00 0.00 0.00 0.00 0.00 0.00 0.00 0.00 0.00 0.00 0.00 0.00 0.00 0.00 0.00 0.00 0.00 0.00 0.00 0.00 0.00 0.00 0.00 0.00 0.00 0.00
0.00 0.00 0.00 0.00 0.00 0.00 0.00 0.00 0.00 0.00 0.00 0.00 0.00 0.00 0.00 0.00 0.00 0.00 0.00 0.00 0.00 0.00 0.00 0.00 0.00 0.00 0.00 0.00 0.00 0.00 0.00 0.00
0.00 0.00 0.00 0.00 0.00 0.00 0.00 0.00 0.00 0.00 0.00 0.00 0.00 0.00 0.00 0.00 0.00 0.00 0.00 0.00 0.00 0.00 0.00 0.00 0.00 0.00 0.00 0.00 0.00 0.00 0.00 0.00
0.00 0.00 0.00 0.00 0.00 0.00 0.00 0.00 0.00 0.00 0.00 0.00 0.00 0.00 0.00 0.00 0.00 0.00 0.00 0.00 0.00 0.00 0.00 0.00 0.00 0.00 0.00 0.00 0.00 0.00 0.00 0.00
0.00 0.00 0.00 0.00 0.00 0.00 0.00 0.00 0.00 0.00 0.00 0.00 0.00 0.00 0.00 0.00 0.00 0.00 0.00 0.00 0.00 0.00 0.00 0.00 0.00 0.00 0.00 0.00 0.00 0.00 0.00 0.00
0.00 0.00 0.00 0.00 0.00 0.00 0.00 0.00 0.00 0.00 0.00 0.00 0.00 0.00 0.00 0.00 0.00 0.00 0.00 0.00 0.00 0.00 0.00 0.00 0.00 0.00 0.00 0.00 0.00 0.00 0.00 0.00
0.00 0.00 0.00 0.00 0.00 0.00 0.00 0.00 0.00 0.00 0.00 0.00 0.00 0.00 0.00 0.00 0.00 0.00 0.00 0.00 0.00 0.00 0.00 0.00 0.00 0.00 0.00 0.00 0.00 0.00 0.00 0.00
0.00 0.00 0.00 0.00 0.00 0.00 0.00 0.00 0.00 0.00 0.00 0.00 0.00 0.00 0.00 0.00 0.00 0.00 0.00 0.00 0.00 0.00 0.00 0.00 0.00 0.00 0.00 0.00 0.00 0.00 0.00 0.00
0.00 0.00 0.00 0.00 0.00 0.00 0.00 0.00 0.00 0.00 0.00 0.00 0.00 0.00 0.00 0.00 0.00 0.00 0.00 0.00 0.00 0.00 0.00 0.00 0.00 0.00 0.00 0.00 0.00 0.00 0.00 0.00
0.00 0.00 0.00 0.00 0.00 0.00 0.00 0.00 0.00 0.00 0.00 0.00 0.00 0.00 0.00 0.00 0.00 0.00 0.00 0.00 0.00 0.00 0.00 0.00 0.00 0.00 0.00 0.00 0.00 0.00 0.00 0.00
0.00 0.00 0.00 0.00 0.00 0.00 0.00 0.00 0.00 0.00 0.00 0.00 0.00 0.00 0.00 0.00 0.00 0.00 0.00 0.00 0.00 0.00 0.00 0.00 0.00 0.00 0.00 0.00 0.00 0.00 0.00 0.00
0.00 0.00 0.00 0.00 0.00 0.00 0.00 0.00 0.00 0.00 0.00 0.00 0.00 0.00 0.00 0.00 0.00 0.00 0.00 0.00 0.00 0.00 0.00 0.00 0.00 0.00 0.00 0.00 0.00 0.00 0.00 0.00
0.00 0.00 0.00 0.00 0.00 0.00 0.00 0.00 0.00 0.00 0.00 0.00 0.00 0.00 0.00 0.00 0.00 0.00 0.00 0.00 0.00 0.00 0.00 0.00 0.00 0.00 0.00 0.00 0.00 0.00 0.00 0.00
0.00 0.00 0.00 0.00 0.00 0.00 0.00 0.00 0.00 0.00 0.00 0.00 0.00 0.00 0.00 0.00 0.00 0.00 0.00 0.00 0.00 0.00 0.00 0.00 0.00 0.00 0.00 0.00 0.00 0.00 0.00 0.00
0.00 0.00 0.00 0.00 0.00 0.00 0.00 0.00 0.00 0.00 0.00 0.00 0.00 0.00 0.00 0.00 0.00 0.00 0.00 0.00 0.00 0.00 0.00 0.00 0.00 0.00 0.00 0.00 0.00 0.00 0.00 0.00
0.00 0.00 0.00 0.00 0.00 0.00 0.00 0.00 0.00 0.00 0.00 0.00 0.00 0.00 0.00 0.00 0.00 0.00 0.00 0.00 0.00 0.00 0.00 0.00 0.00 0.00 0.00 0.00 0.00 0.00 0.00 0.00
0.00 0.00 0.00 0.00 0.00 0.00 0.00 0.00 0.00 0.00 0.00 0.00 0.00 0.00 0.00 0.00 0.00 0.00 0.00 0.00 0.00 0.00 0.00 0.00 0.00 0.00 0.00 0.00 0.00 0.00 0.00 0.00
0.00 0.00 0.00 0.00 0.00 0.00 0.00 0.00 0.00 0.00 0.00 0.00 0.00 0.00 0.00 0.00 0.00 0.00 0.00 0.00 0.00 0.00 0.00 0.00 0.00 0.00 0.00 0.00 0.00 0.00 0.00 0.00
MSLP
1015.23 1015.55 1015.79 1016.10 1016.43 1016.74 1017.09 1017.59 1018.00 1018.34 1018.65 1018.88 1019.14 1019.54 1019.89 1020.13 1020.34 1020.59 1020.83 1021.07 1021.32 1021.53 1021.68 1021.87 1022.03 1022.20 1022.33 1022.48 1022.61 1022.65 1022.16 1022.16
1015.41 1015.67 1015.95 1016.19 1016.52 1016.86 1017.10 1017.51 1018.05 1018.48 1018.74 1019.02 1019.31 1019.60 1019.92 1020.16 1020.43 1020.67 1020.96 1021.17 1021.40 1021.60 1021.79 1021.99 1022.12 1022.29 1022.42 1022.54 1022.65 1022.61 1022.12 1022.12
1015.41 1015.73 1015.98 1016.29 1016.52 1016.91 1017.29 1017.66 1018.01 1018.52 1018.93 1019.21 1019.52 1019.52 1019.92 1020.26 1020.34 1020.75 1020.99 1021.25 1021.50 1021.74 1021.89 1022.04 1022.18 1022.34 1022.44 1022.51 1022.50 1021.97 1021.94 1021.86
1015.45 1015.74 1015.91 1016.32 1016.53 1016.89 1017.19 1017.55 1017.97 1018.25 1018.63 1019.11 1019.28 1019.58 1019.77 1019.98 1020.43 1020.84 1021.09 1021.34 1021.54 1021.74 1021.95 1022.13 1022.27 1021.91 1022.02 1022.39 1021.94 1021.96 1021.86 1021.74
1015.32 1015.71 1015.87 1016.14 1016.38 1016.75 1017.06 1017.32 1017.69 1018.13 1018.43 1018.76 1019.17 1019.51 1019.85 1020.05 1020.31 1020.69 1020.94 1021.37 1021.36 1021.67 1021.86 1021.78 1021.76 1021.78 1021.79 1021.86 1021.81 1021.81 1021.48 1021.41
1014.89 1015.53 1015.86 1016.01 1016.23 1016.65 1016.86 1017.07 1017.38 1017.72 1018.16 1018.55 1018.87 1019.36 1019.75 1020.01 1020.28 1020.42 1020.77 1020.83 1021.03 1021.23 1021.31 1021.53 1021.75 1021.84 1021.86 1021.82 1021.80 1021.66 1021.38 1021.28
1014.78 1015.17 1015.56 1016.01 1016.32 1016.39 1016.68 1016.97 1017.26 1017.43 1017.91 1018.33 1018.44 1018.92 1019.30 1019.73 1020.08 1020.22 1020.47 1020.66 1020.76 1020.94 1021.05 1021.21 1021.42 1021.58 1021.68 1021.71 1021.62 1021.57 1021.51 1021.28
1014.70 1015.03 1015.19 1015.43 1016.05 1016.54 1016.59 1016.79 1017.08 1017.44 1017.58 1017.93 1018.16 1018.35 1018.72 1019.24 1019.72 1019.89 1020.07 1020.52 1020.46 1020.59 1020.69 1020.84 1020.91 1021.10 1021.21 1021.36 1021.34 1021.27 1021.16 1021.08
1014.19 1014.75 1014.91 1015.26 1015.66 1016.27 1016.53 1016.64 1016.92 1017.01 1017.22 1017.65 1018.04 1017.98 1018.25 1018.60 1018.93 1019.20 1019.46 1020.06 1020.17 1020.41 1020.63 1020.78 1020.79 1020.74 1020.72 1020.73 1020.80 1020.77 1020.61 1020.56
1013.21 1013.83 1014.48 1015.00 1015.35 1015.79 1016.13 1016.27 1016.55 1016.62 1016.79 1017.13 1017.57 1017.68 1017.90 1018.15 1018.24 1018.38 1018.75 1019.29 1019.52 1019.74 1019.92 1020.18 1020.30 1020.32 1020.24 1020.07 1019.97 1020.00 1019.93 1019.90
1012.71 1012.86 1013.09 1013.92 1014.66 1015.20 1015.62 1015.86 1015.96 1015.98 1016.36 1016.52 1016.74 1016.98 1017.37 1017.62 1017.64 1017.89 1018.41 1018.60 1018.82 1019.08 1019.36 1019.62 1019.59 1019.76 1019.75 1019.63 1019.48 1019.31 1019.12 1018.97
1011.60 1012.53 1012.86 1012.99 1013.48 1014.21 1014.91 1015.34 1015.43 1015.47 1015.54 1015.77 1016.10 1016.20 1016.53 1016.97 1017.12 1017.50 1017.97 1018.08 1018.28 1018.52 1018.73 1019.06 1019.24 1019.28 1019.30 1019.02 1018.88 1018.64 1018.46 1018.27
1010.59 1011.18 1011.59 1012.65 1013.01 1013.01 1013.44 1013.81 1014.55 1014.74 1014.78 1015.05 1015.40 1015.75 1016.04 1016.27 1016.39 1016.84 1017.26 1017.31 1017.50 1017.95 1018.28 1018.56 1018.65 1019.09 1019.22 1018.56 1018.24 1017.96 1017.65 1017.32
1009.98 1009.99 1010.48 1010.95 1011.31 1011.76 1012.38 1012.62 1012.92 1013.34 1013.83 1014.22 1014.49 1014.85 1015.15 1015.45 1015.53 1015.81 1016.28 1016.55 1016.90 1017.21 1017.65 1017.80 1018.02 1018.45 1018.18 1018.36 1017.46 1016.65 1016.53 1016.44
1010.17 1009.55 1009.71 1009.96 1010.14 1010.98 1011.59 1011.94 1012.32 1012.55 1012.40 1012.77 1013.20 1013.70 1014.07 1014.50 1014.62 1014.88 1015.31 1015.74 1015.80 1016.27 1016.76 1016.97 1016.94 1017.71 1017.88 1017.44 1016.93 1016.06 1015.99 1015.58
1011.03 1009.58 1009.10 1009.20 1009.76 1009.89 1010.08 1009.91 1009.93 1009.78 1010.73 1011.32 1011.93 1012.65 1013.12 1013.36 1013.86 1014.20 1014.40 1014.76 1014.94 1015.10 1015.66 1015.94 1016.55 1016.36 1017.33 1016.89 1016.33 1016.07 1015.77 1015.11
1011.91 1010.41 1009.10 1008.49 1008.79 1008.96 1009.17 1009.04 1008.79 1008.98 1009.83 1010.37 1010.88 1011.18 1011.72 1012.39 1012.76 1013.02 1013.47 1013.71 1013.87 1014.26 1014.69 1015.08 1015.13 1015.34 1015.48 1015.82 1016.05 1015.93 1015.97 1015.76
1012.49 1010.81 1009.29 1008.35 1007.82 1008.04 1008.04 1008.15 1008.20 1008.59 1008.71 1008.88 1009.31 1009.88 1010.36 1010.85 1011.25 1011.93 1012.27 1012.64 1012.67 1012.92 1013.41 1013.86 1014.11 1014.38 1014.40 1014.65 1014.58 1014.54 1014.46 1014.90
1013.54 1011.77 1010.31 1008.84 1007.04 1007.32 1007.52 1007.61 1008.19 1008.05 1008.20 1008.60 1008.99 1009.25 1009.47 1009.44 1009.88 1010.31 1010.92 1011.37 1011.92 1012.49 1012.68 1012.82 1013.14 1013.39 1013.62 1013.47 1013.69 1013.44 1013.47 1013.63
1014.57 1012.99 1011.50 1010.41 1008.81 1007.51 1007.45 1007.55 1007.71 1007.84 1007.89 1007.87 1008.07 1008.16 1008.46 1009.22 1009.82 1010.27 1010.40 1010.77 1011.35 1011.76 1012.15 1012.54 1012.74 1012.79 1012.77 1013.02 1012.94 1012.97 1013.03 1012.75
Thickness
5765 5762 5759 5756 5753 5750 5745 5740 5736 5734 5732 5732 5731 5729 5727 5725 5723 5721 5720 5719 5718 5717 5717 5716 5714 5713 5713 5712 5711 5711 5712 5712
5765 5762 5759 5756 5753 5751 5748 5744 5738 5735 5733 5731 5731 5729 5728 5726 5724 5723 5721 5720 5719 5718 5717 5716 5715 5714 5713 5713 5713 5713 5714 5714
5766 5763 5760 5757 5754 5751 5747 5744 5741 5736 5732 5731 5730 5729 5727 5725 5725 5723 5722 5721 5719 5718 5717 5717 5716 5715 5714 5714 5714 5715 5716 5716
5767 5763 5761 5757 5754 5751 5748 5744 5740 5738 5735 5731 5730 5729 5729 5727 5725 5723 5722 5721 5719 5718 5717 5717 5716 5716 5716 5715 5716 5716 5716 5717
5768 5763 5761 5758 5756 5752 5749 5747 5743 5739 5737 5735 5732 5729 5728 5727 5726 5724 5722 5721 5720 5718 5716 5717 5717 5717 5717 5716 5716 5716 5718 5718
5770 5763 5760 5758 5756 5753 5751 5748 5746 5743 5740 5736 5734 5731 5729 5727 5726 5725 5723 5723 5721 5720 5719 5717 5716 5715 5715 5715 5715 5715 5717 5717
5769 5765 5761 5757 5754 5753 5751 5749 5746 5745 5742 5739 5737 5734 5731 5729 5726 5725 5724 5723 5722 5721 5720 5718 5716 5715 5714 5714 5715 5714 5714 5716
5767 5764 5762 5759 5754 5751 5750 5748 5746 5743 5742 5741 5739 5737 5734 5731 5728 5727 5725 5722 5722 5721 5721 5720 5719 5717 5716 5715 5715 5716 5717 5717
5766 5762 5759 5758 5755 5750 5748 5747 5745 5744 5743 5740 5738 5738 5736 5734 5731 5729 5728 5724 5723 5721 5720 5719 5718 5718 5719 5719 5718 5719 5720 5721
5766 5764 5760 5756 5754 5750 5748 5748 5746 5745 5744 5742 5739 5738 5737 5735 5734 5733 5730 5727 5725 5723 5722 5721 5720 5720 5721 5722 5723 5724 5725 5725
5763 5765 5764 5760 5755 5751 5748 5747 5748 5748 5745 5744 5743 5742 5739 5737 5736 5734 5731 5729 5728 5726 5724 5723 5723 5722 5723 5724 5726 5728 5729 5730
5763 5760 5760 5761 5760 5755 5751 5748 5747 5747 5747 5746 5745 5745 5743 5740 5738 5735 5732 5731 5730 5728 5727 5725 5724 5724 5725 5727 5728 5731 5732 5733
5761 5760 5762 5753 5754 5758 5756 5753 5749 5748 5748 5747 5745 5743 5742 5742 5741 5738 5735 5735 5733 5731 5728 5726 5725 5723 5720 5726 5730 5733 5735 5738
5754 5759 5760 5761 5760 5759 5756 5755 5754 5753 5749 5748 5748 5746 5744 5743 5743 5742 5740 5738 5735 5733 5730 5728 5726 5724 5725 5721 5723 5735 5738 5740
5740 5749 5753 5756 5759 5754 5751 5751 5750 5749 5755 5755 5752 5747 5746 5745 5745 5743 5742 5740 5740 5736 5732 5730 5728 5724 5724 5725 5720 5725 5729 5740
5716 5734 5743 5749 5748 5748 5750 5756 5758 5767 5760 5756 5753 5748 5746 5745 5743 5741 5741 5740 5741 5740 5735 5733 5726 5726 5718 5724 5729 5730 5725 5729
5693 5712 5728 5739 5742 5744 5746 5751 5760 5762 5757 5755 5752 5751 5748 5744 5742 5742 5741 5741 5741 5738 5734 5730 5730 5726 5725 5721 5719 5722 5723 5720
5668 5692 5711 5722 5733 5737 5742 5746 5751 5750 5753 5756 5755 5753 5750 5747 5745 5743 5741 5739 5741 5739 5734 5731 5729 5726 5726 5723 5722 5720 5720 5715
5640 5662 5683 5704 5726 5729 5733 5737 5734 5738 5741 5741 5740 5740 5741 5746 5745 5744 5741 5739 5735 5730 5728 5727 5725 5722 5720 5723 5723 5725 5724 5722
5615 5634 5654 5673 5695 5713 5718 5720 5722 5725 5728 5733 5734 5736 5737 5732 5728 5726 5728 5727 5724 5721 5719 5716 5715 5713 5714 5714 5716 5718 5717 5719